EZY68GD EDDH-EGCC

Flight info

Callsign EZY68GD
Flight time N/A
Altitude 38000
Route WSN5C WSN N125 ITMIZ DCT MIMVA DCT OTBED
Aircraft A320/M-SDE3FGHIRWY/LB1

Departure

Time 2026-05-06 13:29
Airport Hamburg Helmut Schmidt Airport (EDDH)

Arrival

Time N/A
Airport Manchester Airport (EGCC)
Time Latitude Longitude Altitude Speed Heading
2026-05-06 12:51 53.62942 10.00288 47 ft 0 kts 123°
2026-05-06 12:51 53.62943 10.00286 47 ft 0 kts 122°
2026-05-06 13:16 53.62948 10.00274 47 ft 4 kts 122°
2026-05-06 13:17 53.62962 10.00235 48 ft 4 kts 122°
2026-05-06 13:17 53.62977 10.00197 47 ft 4 kts 122°
2026-05-06 13:17 53.62988 10.00167 47 ft 4 kts 128°
2026-05-06 13:17 53.63007 10.00138 46 ft 4 kts 165°
2026-05-06 13:18 53.63028 10.00140 45 ft 1 kts 213°
2026-05-06 13:18 53.63029 10.00140 45 ft 0 kts 213°
2026-05-06 13:20 53.63017 10.00127 48 ft 8 kts 213°
2026-05-06 13:20 53.62973 10.00079 48 ft 7 kts 214°
2026-05-06 13:20 53.62924 10.00037 48 ft 8 kts 185°
2026-05-06 13:21 53.62903 10.00038 48 ft 0 kts 178°
2026-05-06 13:21 53.62853 10.00014 48 ft 10 kts 210°
2026-05-06 13:21 53.62790 9.99954 47 ft 10 kts 210°
2026-05-06 13:22 53.62718 9.99885 46 ft 18 kts 209°
2026-05-06 13:22 53.62638 9.99739 47 ft 16 kts 257°
2026-05-06 13:22 53.62616 9.99569 47 ft 14 kts 258°
2026-05-06 13:22 53.62599 9.99416 47 ft 14 kts 260°
2026-05-06 13:23 53.62578 9.99202 45 ft 23 kts 261°
2026-05-06 13:23 53.62540 9.98891 47 ft 30 kts 258°
2026-05-06 13:23 53.62508 9.98622 47 ft 19 kts 258°
2026-05-06 13:23 53.62485 9.98415 47 ft 17 kts 259°
2026-05-06 13:24 53.62464 9.98229 47 ft 15 kts 259°
2026-05-06 13:24 53.62445 9.98060 47 ft 14 kts 259°
2026-05-06 13:24 53.62428 9.97912 46 ft 10 kts 259°
2026-05-06 13:24 53.62427 9.97870 45 ft 0 kts 278°
2026-05-06 13:28 53.62436 9.97828 40 ft 11 kts 299°
2026-05-06 13:28 53.62501 9.97737 41 ft 7 kts 14°
2026-05-06 13:28 53.62508 9.97751 41 ft 0 kts 50°
2026-05-06 13:29 53.62521 9.97778 41 ft 20 kts 50°
2026-05-06 13:29 53.62780 9.98304 43 ft 92 kts 50°
2026-05-06 13:29 53.63305 9.99366 116 ft 137 kts 50°
2026-05-06 13:29 53.63919 10.00602 781 ft 138 kts 51°
2026-05-06 13:30 53.64539 10.01869 1391 ft 146 kts 51°
2026-05-06 13:30 53.65236 10.03296 1736 ft 169 kts 51°
2026-05-06 13:30 53.66036 10.04928 2044 ft 193 kts 51°
2026-05-06 13:30 53.66907 10.06701 2822 ft 197 kts 51°
2026-05-06 13:31 53.67759 10.08434 3702 ft 197 kts 51°
2026-05-06 13:31 53.68747 10.10077 4478 ft 206 kts 32°
2026-05-06 13:31 53.70161 10.10679 5163 ft 220 kts 359°
2026-05-06 13:31 53.71632 10.09750 5649 ft 248 kts 323°
2026-05-06 13:32 53.72761 10.07302 6079 ft 275 kts 303°
2026-05-06 13:32 53.73681 10.04394 6801 ft 285 kts 298°
2026-05-06 13:32 53.74503 10.01370 7638 ft 289 kts 291°
2026-05-06 13:32 53.74840 9.97961 8545 ft 293 kts 270°
2026-05-06 13:33 53.74645 9.94531 9525 ft 293 kts 263°
2026-05-06 13:33 53.74406 9.91092 10295 ft 301 kts 263°
2026-05-06 13:33 53.74155 9.87442 10557 ft 325 kts 263°
2026-05-06 13:33 53.73891 9.83545 10995 ft 339 kts 263°
2026-05-06 13:34 53.73618 9.79548 11667 ft 346 kts 263°
2026-05-06 13:34 53.73337 9.75487 12386 ft 351 kts 261°
2026-05-06 13:34 53.73048 9.71359 13102 ft 356 kts 262°
2026-05-06 13:34 53.72753 9.67195 13815 ft 359 kts 261°
2026-05-06 13:35 53.72453 9.62991 14495 ft 362 kts 261°
2026-05-06 13:35 53.72154 9.58805 15166 ft 364 kts 261°
2026-05-06 13:35 53.71845 9.54492 15866 ft 366 kts 261°
2026-05-06 13:35 53.71544 9.50267 16536 ft 369 kts 261°
2026-05-06 13:36 53.71236 9.45960 17201 ft 371 kts 261°
2026-05-06 13:36 53.70922 9.41629 17865 ft 373 kts 261°
2026-05-06 13:36 53.70603 9.37253 18504 ft 375 kts 261°
2026-05-06 13:36 53.70282 9.32878 19103 ft 377 kts 261°
2026-05-06 13:37 53.69958 9.28479 19688 ft 379 kts 261°
2026-05-06 13:37 53.69628 9.24045 20256 ft 382 kts 261°
2026-05-06 13:37 53.69295 9.19588 20806 ft 385 kts 261°
2026-05-06 13:37 53.68956 9.15089 21383 ft 387 kts 261°
2026-05-06 13:38 53.68617 9.10572 21959 ft 390 kts 261°
2026-05-06 13:38 53.68274 9.06019 22498 ft 392 kts 261°
2026-05-06 13:38 53.67928 9.01438 23022 ft 395 kts 261°
2026-05-06 13:38 53.67576 8.96819 23520 ft 398 kts 261°
2026-05-06 13:39 53.67217 8.92176 23947 ft 401 kts 261°
2026-05-06 13:39 53.66850 8.87493 24366 ft 403 kts 261°
2026-05-06 13:39 53.66486 8.82845 24723 ft 407 kts 261°
2026-05-06 13:39 53.66109 8.78026 25059 ft 411 kts 261°
2026-05-06 13:40 53.65738 8.73304 25435 ft 414 kts 261°
2026-05-06 13:40 53.65359 8.68473 25816 ft 416 kts 261°
2026-05-06 13:40 53.64975 8.63626 26194 ft 418 kts 261°
2026-05-06 13:40 53.64586 8.58748 26561 ft 421 kts 261°
2026-05-06 13:41 53.64195 8.53848 26930 ft 423 kts 261°
2026-05-06 13:41 53.63799 8.48915 27293 ft 425 kts 261°
2026-05-06 13:41 53.63399 8.43947 27637 ft 427 kts 261°
2026-05-06 13:41 53.62995 8.38988 27983 ft 429 kts 261°
2026-05-06 13:42 53.62585 8.33992 28316 ft 432 kts 261°
2026-05-06 13:42 53.62172 8.28979 28685 ft 433 kts 260°
2026-05-06 13:42 53.61755 8.23952 29034 ft 434 kts 260°
2026-05-06 13:42 53.61337 8.18933 29327 ft 436 kts 260°
2026-05-06 13:43 53.60913 8.13865 29638 ft 438 kts 260°
2026-05-06 13:43 53.60485 8.08780 29942 ft 439 kts 260°
2026-05-06 13:43 53.60053 8.03684 30181 ft 441 kts 260°
2026-05-06 13:43 53.59617 7.98544 30404 ft 443 kts 260°
2026-05-06 13:44 53.59180 7.93404 30637 ft 444 kts 260°
2026-05-06 13:44 53.58743 7.88254 30903 ft 445 kts 260°
2026-05-06 13:44 53.58304 7.83114 31214 ft 444 kts 260°
2026-05-06 13:44 53.57862 7.77984 31536 ft 442 kts 259°
2026-05-06 13:45 53.57416 7.72868 31911 ft 439 kts 259°
2026-05-06 13:45 53.56521 7.62748 32597 ft 436 kts 259°
2026-05-06 13:45 53.56074 7.57716 32906 ft 435 kts 259°
2026-05-06 13:46 53.55625 7.52675 33221 ft 434 kts 259°
2026-05-06 13:46 53.55177 7.47664 33505 ft 433 kts 259°
2026-05-06 13:46 53.54730 7.42659 33827 ft 433 kts 259°
2026-05-06 13:46 53.54285 7.37706 34095 ft 432 kts 259°
2026-05-06 13:47 53.53832 7.32718 34350 ft 431 kts 259°
2026-05-06 13:47 53.53377 7.27752 34596 ft 431 kts 259°
2026-05-06 13:47 53.52921 7.22773 34855 ft 430 kts 259°
2026-05-06 13:47 53.52466 7.17812 35106 ft 429 kts 259°
2026-05-06 13:48 53.52009 7.12855 35305 ft 430 kts 259°
2026-05-06 13:48 53.51546 7.07884 35496 ft 430 kts 259°
2026-05-06 13:48 53.51080 7.02908 35700 ft 431 kts 259°
2026-05-06 13:48 53.50614 6.97940 35907 ft 431 kts 259°
2026-05-06 13:49 53.50147 6.92969 36101 ft 431 kts 259°
2026-05-06 13:49 53.49678 6.87998 36303 ft 430 kts 259°
2026-05-06 13:49 53.49207 6.83036 36502 ft 430 kts 259°
2026-05-06 13:49 53.48741 6.78148 36698 ft 430 kts 259°
2026-05-06 13:50 53.48265 6.73186 36888 ft 430 kts 259°
2026-05-06 13:50 53.47787 6.68231 37085 ft 429 kts 259°
2026-05-06 13:50 53.47308 6.63291 37263 ft 429 kts 259°
2026-05-06 13:50 53.46825 6.58341 37445 ft 429 kts 259°
2026-05-06 13:51 53.46342 6.53411 37627 ft 429 kts 259°
2026-05-06 13:51 53.45856 6.48470 37808 ft 428 kts 259°
2026-05-06 13:51 53.44882 6.38600 37921 ft 429 kts 259°
2026-05-06 13:52 53.43900 6.28725 37923 ft 429 kts 258°
2026-05-06 13:52 53.42913 6.18859 37952 ft 429 kts 258°
2026-05-06 13:53 53.41920 6.09006 37934 ft 428 kts 258°
2026-05-06 13:53 53.40912 5.99162 37930 ft 428 kts 258°
2026-05-06 13:54 53.39893 5.89333 37934 ft 429 kts 258°
2026-05-06 13:54 53.39042 5.81151 37935 ft 429 kts 258°
2026-05-06 13:55 53.38017 5.71300 37943 ft 430 kts 258°
2026-05-06 13:55 53.36981 5.61442 37970 ft 430 kts 258°
2026-05-06 13:56 53.35930 5.51594 37973 ft 430 kts 258°